Time,TemperatureF,DewpointF,PressureIn,WindDirection,WindDirectionDegrees,WindSpeedMPH,WindSpeedGustMPH,Humidity,HourlyPrecipIn,Conditions,Clouds,dailyrainin,SolarRadiationWatts/m^2,SoftwareType,DateUTC
2013-07-02 00:01:00,92.0,39.0,-100.00,NE,36,6.0,19.0,16,0.00,,,0.00,0.000000,,2013-07-02 07:01:00,
2013-07-02 00:11:00,92.0,39.0,-100.00,NE,36,6.0,19.0,16,0.00,,,0.00,0.000000,,2013-07-02 07:11:00,
2013-07-02 00:22:00,92.0,39.0,-100.00,NE,36,6.0,19.0,16,0.00,,,0.00,0.000000,,2013-07-02 07:22:00,
2013-07-02 00:53:00,91.0,42.0,-100.00,South,183,42.0,53.0,18,0.00,,,0.00,0.000000,,2013-07-02 07:53:00,
2013-07-02 01:02:00,91.0,42.0,-100.00,South,183,42.0,53.0,18,0.00,,,0.00,0.000000,,2013-07-02 08:02:00,
2013-07-02 01:12:00,91.0,42.0,-100.00,South,183,42.0,53.0,18,0.00,,,0.00,0.000000,,2013-07-02 08:12:00,
2013-07-02 01:22:00,91.0,42.0,-100.00,South,183,42.0,53.0,18,0.00,,,0.00,0.000000,,2013-07-02 08:22:00,
2013-07-02 01:53:00,91.0,40.0,-100.00,South,175,34.0,50.0,17,0.00,,,0.00,0.000000,,2013-07-02 08:53:00,
2013-07-02 02:01:00,91.0,40.0,-100.00,South,175,34.0,50.0,17,0.00,,,0.00,0.000000,,2013-07-02 09:01:00,
2013-07-02 02:11:00,91.0,40.0,-100.00,South,175,34.0,50.0,17,0.00,,,0.00,0.000000,,2013-07-02 09:11:00,
2013-07-02 02:22:00,91.0,40.0,-100.00,South,175,34.0,50.0,17,0.00,,,0.00,0.000000,,2013-07-02 09:22:00,
2013-07-02 02:52:00,89.0,38.0,-100.00,SW,227,30.0,41.0,17,0.00,,,0.00,0.000000,,2013-07-02 09:52:00,
2013-07-02 03:01:00,89.0,38.0,-100.00,SW,227,30.0,41.0,17,0.00,,,0.00,0.000000,,2013-07-02 10:01:00,
2013-07-02 03:11:00,89.0,38.0,-100.00,SW,227,30.0,41.0,17,0.00,,,0.00,0.000000,,2013-07-02 10:11:00,
2013-07-02 03:22:00,89.0,38.0,-100.00,SW,227,30.0,41.0,17,0.00,,,0.00,0.000000,,2013-07-02 10:22:00,
2013-07-02 03:52:00,90.0,41.0,-100.00,SSE,164,35.0,51.0,18,0.00,,,0.00,0.000000,,2013-07-02 10:52:00,
2013-07-02 04:01:00,90.0,41.0,-100.00,SSE,164,35.0,51.0,18,0.00,,,0.00,0.000000,,2013-07-02 11:01:00,
2013-07-02 04:11:00,90.0,41.0,-100.00,SSE,164,35.0,51.0,18,0.00,,,0.00,0.000000,,2013-07-02 11:11:00,
2013-07-02 04:22:00,90.0,41.0,-100.00,SSE,164,35.0,51.0,18,0.00,,,0.00,0.000000,,2013-07-02 11:22:00,
2013-07-02 04:52:00,89.0,41.0,-100.00,SE,136,34.0,44.0,19,-99.99,,,0.00,0.000000,,2013-07-02 11:52:00,
2013-07-02 05:01:00,89.0,41.0,-100.00,SE,136,34.0,44.0,19,-99.99,,,0.00,0.000000,,2013-07-02 12:01:00,
2013-07-02 05:11:00,89.0,41.0,-100.00,SE,136,34.0,44.0,19,-99.99,,,0.00,0.000000,,2013-07-02 12:11:00,
2013-07-02 05:23:00,89.0,41.0,-100.00,SE,136,34.0,44.0,19,-99.99,,,0.00,0.000000,,2013-07-02 12:23:00,
2013-07-02 05:52:00,87.0,40.0,-100.00,WNW,282,30.0,44.0,19,0.00,,,0.00,0.000000,,2013-07-02 12:52:00,
2013-07-02 06:01:00,87.0,40.0,-100.00,WNW,282,30.0,44.0,19,0.00,,,0.00,0.000000,,2013-07-02 13:01:00,
2013-07-02 06:11:00,87.0,40.0,-100.00,WNW,282,30.0,44.0,19,0.00,,,0.00,0.000000,,2013-07-02 13:11:00,
2013-07-02 06:22:00,87.0,40.0,-100.00,WNW,282,30.0,44.0,19,0.00,,,0.00,0.000000,,2013-07-02 13:22:00,
2013-07-02 06:52:00,89.0,41.0,-100.00,SSW,204,34.0,42.0,19,0.00,,,0.00,25.000000,,2013-07-02 13:52:00,
2013-07-02 07:01:00,89.0,41.0,-100.00,SSW,204,34.0,42.0,19,0.00,,,0.00,25.000000,,2013-07-02 14:01:00,
2013-07-02 07:11:00,89.0,41.0,-100.00,SSW,204,34.0,42.0,19,0.00,,,0.00,25.000000,,2013-07-02 14:11:00,
2013-07-02 07:22:00,89.0,41.0,-100.00,SSW,204,34.0,42.0,19,0.00,,,0.00,25.000000,,2013-07-02 14:22:00,
2013-07-02 07:53:00,88.0,39.0,-100.00,West,272,24.0,40.0,18,0.00,,,0.00,95.000000,,2013-07-02 14:53:00,
2013-07-02 08:02:00,88.0,39.0,-100.00,West,272,24.0,40.0,18,0.00,,,0.00,95.000000,,2013-07-02 15:02:00,
2013-07-02 08:11:00,88.0,39.0,-100.00,West,272,24.0,40.0,18,0.00,,,0.00,95.000000,,2013-07-02 15:11:00,
2013-07-02 08:22:00,88.0,39.0,-100.00,West,272,24.0,40.0,18,0.00,,,0.00,95.000000,,2013-07-02 15:22:00,
2013-07-02 08:53:00,83.0,42.0,-100.00,South,176,7.0,30.0,24,0.00,,,0.00,201.000000,,2013-07-02 15:53:00,
2013-07-02 09:01:00,83.0,42.0,-100.00,South,176,7.0,30.0,24,0.00,,,0.00,201.000000,,2013-07-02 16:01:00,
2013-07-02 09:11:00,83.0,42.0,-100.00,South,176,7.0,30.0,24,0.00,,,0.00,201.000000,,2013-07-02 16:11:00,
2013-07-02 09:21:00,83.0,42.0,-100.00,South,176,7.0,30.0,24,0.00,,,0.00,201.000000,,2013-07-02 16:21:00,
2013-07-02 09:52:00,84.0,43.0,-100.00,SSW,195,6.0,21.0,24,0.00,,,0.00,81.000000,,2013-07-02 16:52:00,
2013-07-02 10:02:00,84.0,43.0,-100.00,SSW,195,6.0,21.0,24,0.00,,,0.00,81.000000,,2013-07-02 17:02:00,
2013-07-02 10:11:00,84.0,43.0,-100.00,SSW,195,6.0,21.0,24,0.00,,,0.00,81.000000,,2013-07-02 17:11:00,
2013-07-02 10:22:00,84.0,43.0,-100.00,SSW,195,6.0,21.0,24,0.00,,,0.00,81.000000,,2013-07-02 17:22:00,
2013-07-02 11:02:00,87.0,40.0,-100.00,WSW,252,14.0,27.0,19,0.00,,,0.00,73.000000,,2013-07-02 18:02:00,
2013-07-02 11:11:00,87.0,40.0,-100.00,WSW,252,14.0,27.0,19,0.00,,,0.00,73.000000,,2013-07-02 18:11:00,
2013-07-02 11:22:00,87.0,40.0,-100.00,WSW,252,14.0,27.0,19,0.00,,,0.00,73.000000,,2013-07-02 18:22:00,
2013-07-02 11:53:00,94.0,43.0,-100.00,NNE,16,24.0,35.0,17,0.00,,,0.00,527.000000,,2013-07-02 18:53:00,
2013-07-02 12:01:00,94.0,43.0,-100.00,NNE,16,24.0,35.0,17,0.00,,,0.00,527.000000,,2013-07-02 19:01:00,
2013-07-02 12:11:00,94.0,43.0,-100.00,NNE,16,24.0,35.0,17,0.00,,,0.00,527.000000,,2013-07-02 19:11:00,
2013-07-02 12:22:00,94.0,43.0,-100.00,NNE,16,24.0,35.0,17,0.00,,,0.00,527.000000,,2013-07-02 19:22:00,
2013-07-02 12:53:00,97.0,38.0,-100.00,NNE,29,18.0,34.0,13,0.00,,,0.00,1068.000000,,2013-07-02 19:53:00,
2013-07-02 13:02:00,97.0,38.0,-100.00,NNE,29,18.0,34.0,13,0.00,,,0.00,1068.000000,,2013-07-02 20:02:00,
2013-07-02 13:11:00,97.0,38.0,-100.00,NNE,29,18.0,34.0,13,0.00,,,0.00,1068.000000,,2013-07-02 20:11:00,
2013-07-02 13:22:00,97.0,38.0,-100.00,NNE,29,18.0,34.0,13,0.00,,,0.00,1068.000000,,2013-07-02 20:22:00,
2013-07-02 14:11:00,106.0,35.0,-100.00,SSE,156,6.0,25.0,9,0.00,,,0.00,912.000000,,2013-07-02 21:11:00,
2013-07-02 14:22:00,106.0,35.0,-100.00,SSE,156,6.0,25.0,9,0.00,,,0.00,912.000000,,2013-07-02 21:22:00,
2013-07-02 14:52:00,102.0,35.0,-100.00,SSE,164,12.0,20.0,10,0.00,,,0.00,1108.000000,,2013-07-02 21:52:00,
2013-07-02 15:01:00,102.0,35.0,-100.00,SSE,164,12.0,20.0,10,0.00,,,0.00,1108.000000,,2013-07-02 22:01:00,
2013-07-02 15:11:00,102.0,35.0,-100.00,SSE,164,12.0,20.0,10,0.00,,,0.00,1108.000000,,2013-07-02 22:11:00,
2013-07-02 15:22:00,102.0,35.0,-100.00,SSE,164,12.0,20.0,10,0.00,,,0.00,1108.000000,,2013-07-02 22:22:00,
2013-07-02 15:53:00,103.0,36.0,-100.00,South,171,17.0,24.0,10,0.00,,,0.00,1100.000000,,2013-07-02 22:53:00,
2013-07-02 16:01:00,103.0,36.0,-100.00,South,171,17.0,24.0,10,0.00,,,0.00,1100.000000,,2013-07-02 23:01:00,
2013-07-02 16:11:00,103.0,36.0,-100.00,South,171,17.0,24.0,10,0.00,,,0.00,1100.000000,,2013-07-02 23:11:00,
2013-07-02 16:22:00,103.0,36.0,-100.00,South,171,17.0,24.0,10,0.00,,,0.00,1100.000000,,2013-07-02 23:22:00,
2013-07-02 16:52:00,105.0,40.0,-100.00,SSE,167,10.0,23.0,11,0.00,,,0.00,941.000000,,2013-07-02 23:52:00,
2013-07-02 17:01:00,105.0,40.0,-100.00,SSE,167,10.0,23.0,11,0.00,,,0.00,941.000000,,2013-07-03 00:01:00,
2013-07-02 17:11:00,105.0,40.0,-100.00,SSE,167,10.0,23.0,11,0.00,,,0.00,941.000000,,2013-07-03 00:11:00,
2013-07-02 17:22:00,105.0,40.0,-100.00,SSE,167,10.0,23.0,11,0.00,,,0.00,941.000000,,2013-07-03 00:22:00,
2013-07-02 17:52:00,104.0,37.0,-100.00,SSE,151,6.0,18.0,10,0.00,,,0.00,727.000000,,2013-07-03 00:52:00,
2013-07-02 18:01:00,104.0,37.0,-100.00,SSE,151,6.0,18.0,10,0.00,,,0.00,727.000000,,2013-07-03 01:01:00,
2013-07-02 18:11:00,104.0,37.0,-100.00,SSE,151,6.0,18.0,10,0.00,,,0.00,727.000000,,2013-07-03 01:11:00,
2013-07-02 18:22:00,104.0,37.0,-100.00,SSE,151,6.0,18.0,10,0.00,,,0.00,727.000000,,2013-07-03 01:22:00,
2013-07-02 18:59:00,98.0,42.0,-100.00,SW,215,20.0,34.0,15,0.00,,,-99.99,283.000000,,2013-07-03 01:59:00,
2013-07-02 19:02:00,98.0,42.0,-100.00,SW,215,20.0,34.0,15,0.00,,,-99.99,283.000000,,2013-07-03 02:02:00,
2013-07-02 19:12:00,98.0,42.0,-100.00,SW,215,20.0,34.0,15,0.00,,,-99.99,283.000000,,2013-07-03 02:12:00,
2013-07-02 19:58:00,92.0,44.0,-100.00,WSW,245,22.0,40.0,19,0.00,,,0.00,61.000000,,2013-07-03 02:58:00,
2013-07-02 20:02:00,92.0,44.0,-100.00,WSW,245,22.0,40.0,19,0.00,,,0.00,61.000000,,2013-07-03 03:02:00,
2013-07-02 20:12:00,92.0,44.0,-100.00,WSW,245,22.0,40.0,19,0.00,,,0.00,61.000000,,2013-07-03 03:12:00,
2013-07-02 20:25:00,92.0,44.0,-100.00,WSW,245,22.0,40.0,19,0.00,,,0.00,61.000000,,2013-07-03 03:25:00,
2013-07-02 20:58:00,92.0,42.0,-100.00,West,281,24.0,40.0,18,0.00,,,0.00,17.000000,,2013-07-03 03:58:00,
2013-07-02 21:01:00,92.0,42.0,-100.00,West,281,24.0,40.0,18,0.00,,,0.00,17.000000,,2013-07-03 04:01:00,
2013-07-02 21:11:00,92.0,42.0,-100.00,West,281,24.0,40.0,18,0.00,,,0.00,17.000000,,2013-07-03 04:11:00,
2013-07-02 21:22:00,92.0,42.0,-100.00,West,281,24.0,40.0,18,0.00,,,0.00,17.000000,,2013-07-03 04:22:00,
2013-07-02 21:52:00,93.0,42.0,-100.00,WNW,299,30.0,41.0,17,0.00,,,0.00,0.000000,,2013-07-03 04:52:00,
2013-07-02 22:01:00,93.0,42.0,-100.00,WNW,299,30.0,41.0,17,0.00,,,0.00,0.000000,,2013-07-03 05:01:00,
2013-07-02 22:11:00,93.0,42.0,-100.00,WNW,299,30.0,41.0,17,0.00,,,0.00,0.000000,,2013-07-03 05:11:00,
2013-07-02 22:23:00,93.0,42.0,-100.00,WNW,299,30.0,41.0,17,0.00,,,0.00,0.000000,,2013-07-03 05:23:00,
2013-07-02 23:03:00,93.0,42.0,-100.00,NW,306,22.0,40.0,17,0.00,,,0.00,0.000000,,2013-07-03 06:03:00,
2013-07-02 23:12:00,93.0,42.0,-100.00,NW,306,22.0,40.0,17,0.00,,,0.00,0.000000,,2013-07-03 06:12:00,